Satellite: SO-33
Catalog number: 25509
Epoch time:      103119.93638026
Element set:     835 
Inclination:       31.4276 deg
RA of node:       115.7684 deg
Eccentricity:    0.0357664
Arg of perigee:   197.4122 deg
Mean anomaly:     161.3984 deg
Mean motion:   14.27493608 rev/day
Decay rate:    5.6200E-006 rev/day^2
Epoch rev:           23537
Checksum:              329

Satellite: PO-34
Catalog number: 25520
Epoch time:      103119.36443558
Element set:     675 
Inclination:       28.4580 deg
RA of node:       118.8288 deg
Eccentricity:    0.0005654
Arg of perigee:    32.0650 deg
Mean anomaly:     328.0285 deg
Mean motion:   15.14242196 rev/day
Decay rate:    3.0220E-005 rev/day^2
Epoch rev:           24817
Checksum:              297

Satellite: ISS (ZARYA)
Catalog number: 25544
Epoch time:      103120.49491219
Element set:     947 
Inclination:       51.6324 deg
RA of node:       259.8619 deg
Eccentricity:    0.0006534
Arg of perigee:    69.6708 deg
Mean anomaly:      57.9630 deg
Mean motion:   15.58744239 rev/day
Decay rate:    2.5757E-004 rev/day^2
Epoch rev:           25356
Checksum:              339

Satellite: ORSTED
Catalog number: 25635
Epoch time:      103119.95722601
Element set:     893 
Inclination:       96.4631 deg
RA of node:        89.4071 deg
Eccentricity:    0.0146352
Arg of perigee:   105.3900 deg
Mean anomaly:     256.3519 deg
Mean motion:   14.44943166 rev/day
Decay rate:    7.4499E-006 rev/day^2
Epoch rev:           22010
Checksum:              308

Satellite: SUNSAT
Catalog number: 25636
Epoch time:      103119.96216055
Element set:     683 
Inclination:       96.4647 deg
RA of node:        87.9227 deg
Eccentricity:    0.0150122
Arg of perigee:   112.4302 deg
Mean anomaly:     249.2872 deg
Mean motion:   14.43006492 rev/day
Decay rate:    3.7299E-006 rev/day^2
Epoch rev:           21996
Checksum:              319

Satellite: UO-36
Catalog number: 25693
Epoch time:      103120.46826019
Element set:     926 
Inclination:       64.5582 deg
RA of node:       153.7683 deg
Eccentricity:    0.0026633
Arg of perigee:   311.7779 deg
Mean anomaly:      48.1035 deg
Mean motion:   14.76464458 rev/day
Decay rate:    4.5500E-006 rev/day^2
Epoch rev:           21672
Checksum:              329

Satellite: FENGYUN 1C
Catalog number: 25730
Epoch time:      103119.96050588
Element set:     838 
Inclination:       98.6271 deg
RA of node:       141.7023 deg
Eccentricity:    0.0014675
Arg of perigee:   158.2613 deg
Mean anomaly:     201.9187 deg
Mean motion:   14.11741712 rev/day
Decay rate:    2.2000E-007 rev/day^2
Epoch rev:           20456
Checksum:              285

Satellite: ASTRA 1H
Catalog number: 25785
Epoch time:      103108.00000000
Element set:     379 
Inclination:        0.0122 deg
RA of node:       319.8851 deg
Eccentricity:    0.0002995
Arg of perigee:    65.1991 deg
Mean anomaly:     199.8210 deg
Mean motion:    1.00273184 rev/day
Decay rate:    1.1399E-006 rev/day^2
Epoch rev:            1408
Checksum:              262

Satellite: TERRA
Catalog number: 25994
Epoch time:      103120.24778463
Element set:     928 
Inclination:       98.1864 deg
RA of node:       195.3287 deg
Eccentricity:    0.0000996
Arg of perigee:    92.8089 deg
Mean anomaly:     267.3238 deg
Mean motion:   14.57149893 rev/day
Decay rate:    4.9499E-006 rev/day^2
Epoch rev:           17896
Checksum:              390

Satellite: WO-39
Catalog number: 26061
Epoch time:      103120.20833346
Element set:     824 
Inclination:      100.1942 deg
RA of node:       190.3407 deg
Eccentricity:    0.0035666
Arg of perigee:    80.0551 deg
Mean anomaly:     280.4653 deg
Mean motion:   14.37913933 rev/day
Decay rate:    6.8899E-006 rev/day^2
Epoch rev:           17068
Checksum:              310

Satellite: OO-38 OPAL
Catalog number: 26063
Epoch time:      103119.74354544
Element set:     773 
Inclination:      100.1960 deg
RA of node:       187.0028 deg
Eccentricity:    0.0037455
Arg of perigee:    89.0331 deg
Mean anomaly:     271.5140 deg
Mean motion:   14.35512698 rev/day
Decay rate:    1.8499E-006 rev/day^2
Epoch rev:           17045
Checksum:              313

Satellite: AO-37
Catalog number: 26065
Epoch time:      103119.55960166
Element set:     792 
Inclination:      100.1986 deg
RA of node:       186.9545 deg
Eccentricity:    0.0037964
Arg of perigee:    90.9975 deg
Mean anomaly:     269.5556 deg
Mean motion:   14.35543004 rev/day
Decay rate:    2.3099E-006 rev/day^2
Epoch rev:           17042
Checksum:              349

Satellite: GOES 11
Catalog number: 26352
Epoch time:      103119.55269878
Element set:     135 
Inclination:        0.3148 deg
RA of node:        98.3347 deg
Eccentricity:    0.0002118
Arg of perigee:   261.4111 deg
Mean anomaly:     302.3062 deg
Mean motion:    1.00273610 rev/day
Decay rate:   -3.0999E-007 rev/day^2
Epoch rev:            1093
Checksum:              267

Satellite: EUTELSAT W4
Catalog number: 26369
Epoch time:      103115.87831020
Element set:     377 
Inclination:        0.0645 deg
RA of node:        30.1196 deg
Eccentricity:    0.0007677
Arg of perigee:    50.0705 deg
Mean anomaly:     125.5317 deg
Mean motion:    1.00275424 rev/day
Decay rate:    1.4199E-006 rev/day^2
Epoch rev:            1071
Checksum:              264

Satellite: FENGYUN 2B
Catalog number: 26382
Epoch time:      103118.64196970
Element set:     840 
Inclination:        0.3978 deg
RA of node:       291.9920 deg
Eccentricity:    0.0001049
Arg of perigee:   251.7802 deg
Mean anomaly:       8.2329 deg
Mean motion:    1.00279869 rev/day
Decay rate:   -3.3599E-006 rev/day^2
Epoch rev:            1040
Checksum:              304

Satellite: EUTELSAT W1
Catalog number: 26487
Epoch time:      103117.88206598
Element set:     392 
Inclination:        0.0415 deg
RA of node:       111.1152 deg
Eccentricity:    0.0004401
Arg of perigee:   273.7864 deg
Mean anomaly:     158.0368 deg
Mean motion:    1.00273626 rev/day
Decay rate:    6.1999E-007 rev/day^2
Epoch rev:             970
Checksum:              292

Satellite: ASTRA 2B
Catalog number: 26494
Epoch time:      103108.00000000
Element set:     262 
Inclination:        0.0178 deg
RA of node:       354.5658 deg
Eccentricity:    0.0005000
Arg of perigee:   302.8402 deg
Mean anomaly:     296.4717 deg
Mean motion:    1.00276704 rev/day
Decay rate:    1.4400E-006 rev/day^2
Epoch rev:             950
Checksum:              226

Satellite: NOAA-16
Catalog number: 26536
Epoch time:      103120.37570724
Element set:     308 
Inclination:       98.9115 deg
RA of node:        68.1797 deg
Eccentricity:    0.0011339
Arg of perigee:   104.5707 deg
Mean anomaly:     255.6710 deg
Mean motion:   14.11945406 rev/day
Decay rate:    1.1000E-007 rev/day^2
Epoch rev:           13414
Checksum:              285

Satellite: SO-41
Catalog number: 26545
Epoch time:      103120.26947764
Element set:     445 
Inclination:       64.5594 deg
RA of node:       174.5952 deg
Eccentricity:    0.0046702
Arg of perigee:   227.5201 deg
Mean anomaly:     132.1926 deg
Mean motion:   14.79164986 rev/day
Decay rate:    9.9600E-006 rev/day^2
Epoch rev:           13967
Checksum:              437

Satellite: UNISAT
Catalog number: 26547
Epoch time:      103119.67596724
Element set:     465 
Inclination:       64.5572 deg
RA of node:       178.3599 deg
Eccentricity:    0.0053860
Arg of perigee:   228.9697 deg
Mean anomaly:     130.6753 deg
Mean motion:   14.80045360 rev/day
Decay rate:    2.1320E-005 rev/day^2
Epoch rev:           13956
Checksum:              336

Satellite: MO-46
Catalog number: 26548
Epoch time:      103119.57392436
Element set:     449 
Inclination:       64.5568 deg
RA of node:       168.8349 deg
Eccentricity:    0.0039849
Arg of perigee:   228.3707 deg
Mean anomaly:     131.3988 deg
Mean motion:   14.81505429 rev/day
Decay rate:    1.5409E-005 rev/day^2
Epoch rev:           13974
Checksum:              370

Satellite: SO-42
Catalog number: 26549
Epoch time:      103120.22125901
Element set:     734 
Inclination:       64.5496 deg
RA of node:       179.2164 deg
Eccentricity:    0.0051249
Arg of perigee:   226.9101 deg
Mean anomaly:     132.7714 deg
Mean motion:   14.78095383 rev/day
Decay rate:    1.2929E-005 rev/day^2
Epoch rev:           13958
Checksum:              316

Satellite: AO-40
Catalog number: 26609
Epoch time:      103116.94145327
Element set:     326 
Inclination:        8.5938 deg
RA of node:        51.9652 deg
Eccentricity:    0.7956302
Arg of perigee:   168.1313 deg
Mean anomaly:     239.3780 deg
Mean motion:    1.25596936 rev/day
Decay rate:   -4.6899E-006 rev/day^2
Epoch rev:            1143
Checksum:              414

Satellite: GOES 12
Catalog number: 26871
Epoch time:      103120.32416081
Element set:     943 
Inclination:        0.1556 deg
RA of node:       272.9132 deg
Eccentricity:    0.0003679
Arg of perigee:   328.2783 deg
Mean anomaly:      18.7963 deg
Mean motion:    1.00274520 rev/day
Decay rate:   -2.4799E-006 rev/day^2
Epoch rev:             654
Checksum:              293

